TimePST,TemperatureF,Dew PointF,Humidity,Sea Level PressureIn,VisibilityMPH,Wind Direction,Wind SpeedMPH,Gust SpeedMPH,PrecipitationIn,Events,Conditions,WindDirDegrees,DateUTC
12:53 AM,54.0,39.0,57,30.04,10.0,Calm,Calm,-,N/A,,Clear,0,2012-11-14 08:53:00
1:53 AM,53.1,37.9,57,30.03,10.0,Calm,Calm,-,N/A,,Clear,0,2012-11-14 09:53:00
2:53 AM,52.0,41.0,66,30.03,10.0,Calm,Calm,-,N/A,,Clear,0,2012-11-14 10:53:00
3:53 AM,50.0,39.0,66,30.03,10.0,Calm,Calm,-,N/A,,Clear,0,2012-11-14 11:53:00
4:53 AM,51.1,37.9,61,30.03,10.0,Calm,Calm,-,N/A,,Clear,0,2012-11-14 12:53:00
5:53 AM,51.1,35.1,54,30.03,10.0,Calm,Calm,-,N/A,,Clear,0,2012-11-14 13:53:00
6:53 AM,52.0,34.0,50,30.03,10.0,Calm,Calm,-,N/A,,Clear,0,2012-11-14 14:53:00
7:53 AM,57.9,30.0,35,30.04,10.0,Calm,Calm,-,N/A,,Clear,0,2012-11-14 15:53:00
8:53 AM,66.0,32.0,28,30.06,10.0,Calm,Calm,-,N/A,,Clear,0,2012-11-14 16:53:00
9:53 AM,71.1,37.0,29,30.06,10.0,SW,3.5,-,N/A,,Clear,220,2012-11-14 17:53:00
10:53 AM,75.0,35.1,23,30.05,10.0,SSW,5.8,-,N/A,,Clear,210,2012-11-14 18:53:00
11:53 AM,77.0,39.9,26,30.02,10.0,SW,4.6,-,N/A,,Clear,220,2012-11-14 19:53:00
12:53 PM,77.0,36.0,23,30.00,10.0,SSW,4.6,-,N/A,,Clear,200,2012-11-14 20:53:00
1:53 PM,77.0,37.9,24,29.99,10.0,SW,5.8,-,N/A,,Clear,220,2012-11-14 21:53:00
2:53 PM,73.9,39.9,29,29.98,10.0,SSW,4.6,-,N/A,,Clear,210,2012-11-14 22:53:00
3:53 PM,73.0,41.0,31,29.98,10.0,Calm,Calm,-,N/A,,Clear,0,2012-11-14 23:53:00
4:53 PM,70.0,48.0,46,29.98,10.0,Calm,Calm,-,N/A,,Clear,0,2012-11-15 00:53:00
5:53 PM,66.0,53.1,63,30.00,10.0,Calm,Calm,-,N/A,,Clear,0,2012-11-15 01:53:00
6:53 PM,63.0,52.0,67,30.01,9.0,Calm,Calm,-,N/A,,Clear,0,2012-11-15 02:53:00
7:53 PM,60.1,50.0,69,30.02,10.0,Calm,Calm,-,N/A,,Clear,0,2012-11-15 03:53:00
8:53 PM,60.1,48.9,67,30.03,10.0,Calm,Calm,-,N/A,,Unknown,0,2012-11-15 04:53:00
9:53 PM,57.9,46.0,65,30.04,10.0,Calm,Calm,-,N/A,,Partly Cloudy,0,2012-11-15 05:53:00
10:53 PM,55.9,46.9,72,30.04,9.0,Calm,Calm,-,N/A,,Mostly Cloudy,0,2012-11-15 06:53:00
11:04 PM,55.4,46.4,72,30.04,8.0,Calm,Calm,-,N/A,,Scattered Clouds,0,2012-11-15 07:04:00
11:53 PM,55.9,46.0,69,30.02,10.0,Calm,Calm,-,N/A,,Clear,0,2012-11-15 07:53:00